Flag for Spain Weather past 2 weeks in Linares, Spain

Now
46 °F

Scattered clouds.


Feels Like: 40 °F
Forecast: 35 / 50 °F
Wind: 14 mph from Northwest

Location: Granada / Aeropuerto

Current Time: Jan 31, 2015 at 6:14:37 PM

Latest Report: Jan 31, 2015 at 5:46 PM


Visibility: N/A

Pressure: 29.71 "Hg

Humidity: 76%

Dew point: 39 °F

Location of LinaresLocation

Historic Weather in Linares — Graph

°F

Linares temperature yesterday

Maximum temperature yesterday: 55 °F (at 8:00 PM)
Minimum temperature yesterday: 50 °F (at 6:00 AM)
Average temperature yesterday: 52 °F

Past Weeks' High & Low Weather Summary

 TemperatureHumidityPressure
High64 °F (Jan 27, 4:30 PM)100% (Jan 17, 6:00 AM)30.36 "Hg (Jan 17, 6:00 AM)
Low25 °F (Jan 24, 7:00 AM)22% (Jan 25, 3:30 PM)29.56 "Hg (Jan 31, 7:00 AM)
Average44 °F73%30.07 "Hg
* Reported Jan 16 5:00 PM — Jan 31 5:00 PM, Linares, Weather by CustomWeather, © 2014

Note: Actual official high and low records may vary slightly from our data, if they occured in-between our weather recording intervals... More about our weather records

Advertising

Linares weather history for previous 24 hours

 ConditionsComfort  
Time TempWeatherWind HumidityBarometerVisibility
5:00 PM
Jan 31
52 °FPassing clouds.22 mph50%29.68 "HgN/A
4:00 PM52 °FPassing clouds.25 mph58%29.68 "HgN/A
3:30 PM52 °FPassing clouds.24 mph58%29.65 "HgN/A
3:00 PM54 °FPassing clouds.23 mph63%29.65 "HgN/A
2:30 PM54 °FPassing clouds.23 mph54%29.65 "HgN/A
2:00 PM54 °FPassing clouds.23 mph58%29.65 "HgN/A
1:30 PM54 °FPassing clouds.23 mph58%29.65 "HgN/A
1:00 PM54 °FScattered clouds.17 mph72%29.68 "HgN/A
12:30 PM52 °FScattered clouds.24 mph72%29.65 "HgN/A
12:00 PM52 °FScattered clouds.20 mph82%29.65 "HgN/A
11:52 AM50 °FScattered clouds.20 mph88%29.65 "HgN/A
11:30 AM50 °FHeavy rain. Broken clouds.28 mph94%29.65 "Hg1 mi
11:00 AM52 °FRain. Broken clouds.29 mph94%29.59 "Hg2 mi
10:30 AM54 °FScattered clouds.28 mph88%29.59 "HgN/A
10:00 AM52 °FLight rain. Scattered clouds.26 mph100%29.59 "Hg1 mi
9:30 AM52 °FRain. Broken clouds.26 mph100%29.59 "Hg1 mi
9:00 AM52 °FRain. Broken clouds.24 mph100%29.59 "Hg1 mi
8:30 AM52 °FHeavy rain. Broken clouds.24 mph100%29.59 "Hg1 mi
8:00 AM52 °FHeavy rain. Partly cloudy.28 mph100%29.59 "Hg2 mi
7:30 AM52 °FRain. Partly cloudy.29 mph100%29.56 "Hg2 mi
7:00 AM54 °FPartly cloudy.29 mph88%29.56 "HgN/A
6:30 AM52 °FRain. Partly cloudy.24 mph94%29.59 "Hg3 mi
6:00 AM52 °FRain. Partly cloudy.24 mph100%29.59 "Hg3 mi
11:00 PM
Jan 30
54 °FPartly cloudy.14 mph94%29.80 "HgN/A
10:30 PM54 °FLight rain. Partly cloudy.13 mph94%29.80 "Hg4 mi
10:00 PM54 °FLight rain. Partly cloudy.15 mph94%29.80 "Hg6 mi
9:30 PM55 °FPartly cloudy.13 mph88%29.80 "HgN/A
9:00 PM55 °FPartly cloudy.10 mph88%29.83 "HgN/A
8:30 PM55 °FPartly cloudy.14 mph88%29.80 "HgN/A
8:00 PM55 °FPartly cloudy.13 mph88%29.80 "HgN/A
7:30 PM54 °FPartly cloudy.16 mph94%29.83 "HgN/A
7:00 PM54 °FPartly cloudy.17 mph94%29.83 "HgN/A
6:30 PM54 °FBroken clouds.14 mph94%29.83 "HgN/A
6:00 PM54 °FBroken clouds.14 mph94%29.83 "Hg6 mi
Weather by CustomWeather, © 2014

See weather overviewHow to use our weather pages